Time,TemperatureF,DewpointF,PressureIn,WindDirection,WindDirectionDegrees,WindSpeedMPH,WindSpeedGustMPH,Humidity,HourlyPrecipIn,Conditions,Clouds,dailyrainin,SoftwareType,DateUTC
2013-08-27 00:05:00,65.8,65.2,29.89,West,270,0.0,-999.0,98,-99.99,,,0.00,Acu-Link.com,2013-08-27 04:05:00,
2013-08-27 00:20:00,65.8,65.2,29.90,West,270,0.0,-999.0,98,-99.99,,,0.00,Acu-Link.com,2013-08-27 04:20:00,
2013-08-27 00:35:00,65.5,64.9,29.90,SW,225,0.0,-999.0,98,-99.99,,,0.00,Acu-Link.com,2013-08-27 04:35:00,
2013-08-27 00:50:00,65.3,64.7,29.89,WNW,292,0.0,-999.0,98,-99.99,,,0.00,Acu-Link.com,2013-08-27 04:50:00,
2013-08-27 01:06:00,65.5,64.9,29.89,NNW,337,0.0,-999.0,98,-99.99,,,0.00,Acu-Link.com,2013-08-27 05:06:00,
2013-08-27 01:21:00,65.1,64.5,29.89,NNW,337,0.0,-999.0,98,-99.99,,,0.00,Acu-Link.com,2013-08-27 05:21:00,
2013-08-27 01:36:00,64.9,64.3,29.90,WSW,247,0.0,-999.0,98,-99.99,,,0.00,Acu-Link.com,2013-08-27 05:36:00,
2013-08-27 01:51:00,64.8,64.2,29.89,WSW,247,0.0,-999.0,98,-99.99,,,0.00,Acu-Link.com,2013-08-27 05:51:00,
2013-08-27 02:06:00,64.9,64.3,29.89,SW,225,0.0,-999.0,98,-99.99,,,0.00,Acu-Link.com,2013-08-27 06:06:00,
2013-08-27 02:21:00,64.4,63.8,29.89,WNW,292,0.0,-999.0,98,-99.99,,,0.00,Acu-Link.com,2013-08-27 06:21:00,
2013-08-27 02:36:00,64.0,63.4,29.89,NNE,22,0.0,-999.0,98,-99.99,,,0.00,Acu-Link.com,2013-08-27 06:36:00,
2013-08-27 02:51:00,64.4,63.8,29.88,West,270,0.0,-999.0,98,-99.99,,,0.00,Acu-Link.com,2013-08-27 06:51:00,
2013-08-27 03:06:00,63.7,63.1,29.88,WNW,292,0.0,-999.0,98,-99.99,,,0.00,Acu-Link.com,2013-08-27 07:06:00,
2013-08-27 03:22:00,63.7,63.1,29.88,ENE,67,0.0,-999.0,98,-99.99,,,0.00,Acu-Link.com,2013-08-27 07:22:00,
2013-08-27 03:37:00,63.3,62.7,29.88,NW,315,0.0,-999.0,98,-99.99,,,0.00,Acu-Link.com,2013-08-27 07:37:00,
2013-08-27 03:52:00,63.1,62.5,29.88,NW,315,0.0,-999.0,98,-99.99,,,0.00,Acu-Link.com,2013-08-27 07:52:00,
2013-08-27 04:09:00,63.1,62.5,29.87,WNW,292,0.0,-999.0,98,-99.99,,,0.00,Acu-Link.com,2013-08-27 08:09:00,
2013-08-27 04:25:00,63.0,62.4,29.87,West,270,0.0,-999.0,98,-99.99,,,0.00,Acu-Link.com,2013-08-27 08:25:00,
2013-08-27 04:41:00,63.1,62.5,29.87,SW,225,0.0,-999.0,98,-99.99,,,0.00,Acu-Link.com,2013-08-27 08:41:00,
2013-08-27 04:56:00,63.0,62.4,29.87,NNW,337,0.0,-999.0,98,-99.99,,,0.00,Acu-Link.com,2013-08-27 08:56:00,
2013-08-27 05:11:00,62.8,62.2,29.88,WNW,292,0.0,-999.0,98,-99.99,,,0.00,Acu-Link.com,2013-08-27 09:11:00,
2013-08-27 05:26:00,62.8,62.2,29.87,SSE,157,0.0,-999.0,98,-99.99,,,0.00,Acu-Link.com,2013-08-27 09:26:00,
2013-08-27 05:41:00,62.6,62.0,29.87,West,270,0.0,-999.0,98,-99.99,,,0.00,Acu-Link.com,2013-08-27 09:41:00,
2013-08-27 05:56:00,62.6,62.0,29.87,North,0,0.0,-999.0,98,-99.99,,,0.00,Acu-Link.com,2013-08-27 09:56:00,
2013-08-27 06:11:00,62.6,62.0,29.87,NE,45,0.0,-999.0,98,-99.99,,,0.00,Acu-Link.com,2013-08-27 10:11:00,
2013-08-27 06:27:00,62.6,62.0,29.87,NW,315,0.0,-999.0,98,-99.99,,,0.00,Acu-Link.com,2013-08-27 10:27:00,
2013-08-27 06:42:00,62.6,62.0,29.87,NNW,337,0.0,-999.0,98,-99.99,,,0.00,Acu-Link.com,2013-08-27 10:42:00,
2013-08-27 06:57:00,62.8,62.2,29.87,NW,315,0.0,-999.0,98,-99.99,,,0.00,Acu-Link.com,2013-08-27 10:57:00,
2013-08-27 07:12:00,63.0,62.4,29.87,South,180,0.0,-999.0,98,-99.99,,,0.00,Acu-Link.com,2013-08-27 11:12:00,
2013-08-27 07:27:00,63.0,62.4,29.88,North,0,0.0,-999.0,98,-99.99,,,0.00,Acu-Link.com,2013-08-27 11:27:00,
2013-08-27 07:42:00,63.3,62.7,29.88,NW,315,0.0,-999.0,98,-99.99,,,0.00,Acu-Link.com,2013-08-27 11:42:00,
2013-08-27 07:57:00,64.0,63.4,29.88,ESE,112,0.0,-999.0,98,-99.99,,,0.00,Acu-Link.com,2013-08-27 11:57:00,
2013-08-27 08:12:00,64.6,64.0,29.88,NNE,22,0.0,-999.0,98,-99.99,,,0.00,Acu-Link.com,2013-08-27 12:12:00,
2013-08-27 08:27:00,65.7,65.1,29.88,South,180,0.0,-999.0,98,-99.99,,,0.00,Acu-Link.com,2013-08-27 12:27:00,
2013-08-27 08:43:00,68.2,67.6,29.89,ENE,67,0.0,-999.0,98,-99.99,,,0.00,Acu-Link.com,2013-08-27 12:43:00,
2013-08-27 08:58:00,68.5,67.9,29.88,East,90,1.7,-999.0,98,-99.99,,,0.00,Acu-Link.com,2013-08-27 12:58:00,
2013-08-27 09:13:00,70.0,69.4,29.88,NNW,337,1.7,-999.0,98,-99.99,,,0.00,Acu-Link.com,2013-08-27 13:13:00,
2013-08-27 09:28:00,71.4,70.2,29.88,East,90,1.7,-999.0,96,-99.99,,,0.00,Acu-Link.com,2013-08-27 13:28:00,
2013-08-27 09:43:00,73.0,71.5,29.89,NW,315,0.0,-999.0,95,-99.99,,,0.00,Acu-Link.com,2013-08-27 13:43:00,
2013-08-27 09:58:00,74.5,72.0,29.88,North,0,1.7,-999.0,92,-99.99,,,0.00,Acu-Link.com,2013-08-27 13:58:00,
2013-08-27 10:13:00,76.6,72.8,29.88,East,90,0.0,-999.0,88,-99.99,,,0.00,Acu-Link.com,2013-08-27 14:13:00,
2013-08-27 10:28:00,77.2,73.0,29.88,ENE,67,0.0,-999.0,87,-99.99,,,0.00,Acu-Link.com,2013-08-27 14:28:00,
2013-08-27 10:43:00,77.9,72.3,29.88,NNW,337,4.2,-999.0,83,-99.99,,,0.00,Acu-Link.com,2013-08-27 14:43:00,
2013-08-27 10:59:00,78.4,73.2,29.88,East,90,2.2,-999.0,84,-99.99,,,0.00,Acu-Link.com,2013-08-27 14:59:00,
2013-08-27 11:14:00,79.0,73.4,29.87,North,0,0.0,-999.0,83,-99.99,,,0.00,Acu-Link.com,2013-08-27 15:14:00,
2013-08-27 11:29:00,80.1,73.4,29.87,East,90,2.7,-999.0,80,-99.99,,,0.00,Acu-Link.com,2013-08-27 15:29:00,
2013-08-27 11:44:00,81.0,73.1,29.86,NW,315,1.1,-999.0,77,-99.99,,,0.00,Acu-Link.com,2013-08-27 15:44:00,
2013-08-27 11:59:00,81.9,74.0,29.88,NNW,337,0.0,-999.0,77,-99.99,,,0.00,Acu-Link.com,2013-08-27 15:59:00,
2013-08-27 12:14:00,83.7,74.9,29.86,NNE,22,2.2,-999.0,75,-99.99,,,0.00,Acu-Link.com,2013-08-27 16:14:00,
2013-08-27 12:29:00,83.7,74.5,29.86,SSW,202,1.7,-999.0,74,-99.99,,,0.00,Acu-Link.com,2013-08-27 16:29:00,
2013-08-27 12:44:00,85.5,75.4,29.85,NNE,22,3.2,-999.0,72,-99.99,,,0.00,Acu-Link.com,2013-08-27 16:44:00,
2013-08-27 12:59:00,84.9,75.7,29.84,East,90,4.2,-999.0,74,-99.99,,,0.00,Acu-Link.com,2013-08-27 16:59:00,
2013-08-27 13:14:00,85.8,74.9,29.84,NNW,337,3.7,-999.0,70,-99.99,,,0.00,Acu-Link.com,2013-08-27 17:14:00,
2013-08-27 13:30:00,85.8,74.0,29.84,North,0,1.1,-999.0,68,-99.99,,,0.00,Acu-Link.com,2013-08-27 17:30:00,
2013-08-27 13:45:00,85.8,74.9,29.83,ESE,112,2.7,-999.0,70,-99.99,,,0.00,Acu-Link.com,2013-08-27 17:45:00,
2013-08-27 14:00:00,87.3,75.9,29.82,ESE,112,3.2,-999.0,69,-99.99,,,0.00,Acu-Link.com,2013-08-27 18:00:00,
2013-08-27 14:15:00,86.9,74.6,29.81,NNE,22,7.8,-999.0,67,-99.99,,,0.00,Acu-Link.com,2013-08-27 18:15:00,
2013-08-27 14:30:00,86.5,74.7,29.81,NNE,22,1.7,-999.0,68,-99.99,,,0.00,Acu-Link.com,2013-08-27 18:30:00,
2013-08-27 14:45:00,86.4,74.1,29.81,East,90,3.2,-999.0,67,-99.99,,,0.00,Acu-Link.com,2013-08-27 18:45:00,
2013-08-27 15:00:00,87.3,74.5,29.80,SSE,157,3.2,-999.0,66,-99.99,,,0.00,Acu-Link.com,2013-08-27 19:00:00,
2013-08-27 15:15:00,87.8,74.1,29.80,NNW,337,2.7,-999.0,64,-99.99,,,0.00,Acu-Link.com,2013-08-27 19:15:00,
2013-08-27 15:30:00,87.6,74.3,29.78,NW,315,2.7,-999.0,65,-99.99,,,0.00,Acu-Link.com,2013-08-27 19:30:00,
2013-08-27 15:46:00,87.8,73.6,29.78,ENE,67,3.2,-999.0,63,-99.99,,,0.00,Acu-Link.com,2013-08-27 19:46:00,
2013-08-27 16:01:00,88.3,75.0,29.77,NNW,337,1.7,-999.0,65,-99.99,,,0.00,Acu-Link.com,2013-08-27 20:01:00,
2013-08-27 16:16:00,88.3,75.0,29.77,NE,45,3.7,-999.0,65,-99.99,,,0.00,Acu-Link.com,2013-08-27 20:16:00,
2013-08-27 16:31:00,89.1,74.8,29.76,North,0,1.7,-999.0,63,-99.99,,,0.00,Acu-Link.com,2013-08-27 20:31:00,
2013-08-27 16:46:00,89.1,75.3,29.77,NNW,337,2.2,-999.0,64,-99.99,,,0.00,Acu-Link.com,2013-08-27 20:46:00,
2013-08-27 17:01:00,88.9,74.2,29.76,WNW,292,0.0,-999.0,62,-99.99,,,0.00,Acu-Link.com,2013-08-27 21:01:00,
2013-08-27 17:16:00,88.7,74.9,29.76,NNW,337,2.2,-999.0,64,-99.99,,,0.00,Acu-Link.com,2013-08-27 21:16:00,
2013-08-27 17:47:00,88.9,73.7,29.76,NW,315,3.7,-999.0,61,-99.99,,,0.00,Acu-Link.com,2013-08-27 21:47:00,
2013-08-27 18:02:00,89.1,73.9,29.76,NNE,22,3.2,-999.0,61,-99.99,,,0.00,Acu-Link.com,2013-08-27 22:02:00,
2013-08-27 18:17:00,89.6,74.3,29.76,North,0,1.7,-999.0,61,-99.99,,,0.00,Acu-Link.com,2013-08-27 22:17:00,
2013-08-27 18:32:00,88.9,75.1,29.77,NE,45,0.0,-999.0,64,-99.99,,,0.00,Acu-Link.com,2013-08-27 22:32:00,
2013-08-27 18:47:00,88.0,75.6,29.77,NE,45,1.1,-999.0,67,-99.99,,,0.00,Acu-Link.com,2013-08-27 22:47:00,
2013-08-27 19:02:00,87.1,74.8,29.76,North,0,0.0,-999.0,67,-99.99,,,0.00,Acu-Link.com,2013-08-27 23:02:00,
2013-08-27 19:18:00,85.1,75.0,29.76,NNW,337,0.0,-999.0,72,-99.99,,,0.00,Acu-Link.com,2013-08-27 23:18:00,
2013-08-27 19:33:00,83.1,75.5,29.77,NNW,337,0.0,-999.0,78,-99.99,,,0.00,Acu-Link.com,2013-08-27 23:33:00,
2013-08-27 19:48:00,81.5,76.2,29.77,NW,315,0.0,-999.0,84,-99.99,,,0.00,Acu-Link.com,2013-08-27 23:48:00,
2013-08-27 20:03:00,79.7,75.1,29.76,NNW,337,0.0,-999.0,86,-99.99,,,0.00,Acu-Link.com,2013-08-28 00:03:00,
2013-08-27 20:18:00,78.3,75.1,29.76,NNW,337,0.0,-999.0,90,-99.99,,,0.00,Acu-Link.com,2013-08-28 00:18:00,
2013-08-27 20:33:00,77.4,75.5,29.77,NNW,337,0.0,-999.0,94,-99.99,,,0.00,Acu-Link.com,2013-08-28 00:33:00,
2013-08-27 20:48:00,76.1,74.2,29.76,NNW,337,0.0,-999.0,94,-99.99,,,0.00,Acu-Link.com,2013-08-28 00:48:00,
2013-08-27 21:03:00,75.2,74.6,29.77,NW,315,0.0,-999.0,98,-99.99,,,0.00,Acu-Link.com,2013-08-28 01:03:00,
2013-08-27 21:19:00,74.5,73.9,29.77,East,90,0.0,-999.0,98,-99.99,,,0.00,Acu-Link.com,2013-08-28 01:19:00,
2013-08-27 21:34:00,73.9,73.3,29.77,SSE,157,0.0,-999.0,98,-99.99,,,0.00,Acu-Link.com,2013-08-28 01:34:00,
2013-08-27 21:49:00,73.6,73.0,29.78,SSE,157,0.0,-999.0,98,-99.99,,,0.00,Acu-Link.com,2013-08-28 01:49:00,
2013-08-27 22:04:00,73.0,72.4,29.78,North,0,0.0,-999.0,98,-99.99,,,0.00,Acu-Link.com,2013-08-28 02:04:00,
2013-08-27 22:19:00,72.5,71.9,29.79,NNW,337,0.0,-999.0,98,-99.99,,,0.00,Acu-Link.com,2013-08-28 02:19:00,
2013-08-27 22:34:00,72.1,71.5,29.79,SE,135,0.0,-999.0,98,-99.99,,,0.00,Acu-Link.com,2013-08-28 02:34:00,
2013-08-27 22:49:00,71.8,71.2,29.79,NE,45,0.0,-999.0,98,-99.99,,,0.00,Acu-Link.com,2013-08-28 02:49:00,
2013-08-27 23:19:00,71.4,70.8,29.80,West,270,0.0,-999.0,98,-99.99,,,0.00,Acu-Link.com,2013-08-28 03:19:00,
2013-08-27 23:35:00,71.1,70.5,29.80,NNE,22,0.0,-999.0,98,-99.99,,,0.00,Acu-Link.com,2013-08-28 03:35:00,
2013-08-27 23:50:00,70.7,70.1,29.80,NNE,22,0.0,-999.0,98,-99.99,,,0.00,Acu-Link.com,2013-08-28 03:50:00,